Cranbrook Airport
CYXC : now visible

Airfield :











YOU CAN JOIN US ON...

 
LOGIN :

Register | Disclaimer

   EN    FR    IT 

 









Legend :    VFR   Marginal VFR   IFR   Intensive IFR   Very Intensive IFR
Visi :
Ceiling :
>= 8 km
>= 3000ft
5 to 8 km
1000 to 3000 ft
1500m to 5 km
500 to 1000 ft
800 to 1500m
200 to 500 ft
< 800m
< 200 ft
Symbols :   Thunderstorms  Fog  Heavy snow  Heavy precipitations  Wind > 20 kt






- Airport Elevation : 3082 ft
- IATA code : YXC


CYXC - Cranbrook

CURRENT METAR :
  • 211900Z 04004KT 45SM FEW180 FEW240 12/M05 A2996 RMK AC1CI1 SLP162 DENSITY ALT 3500FT

EXPIRED METARs :
  • 211800Z 07004KT 300V090 45SM SKC 10/M05 A3000 RMK SLP175 DENSITY ALT 3100FT
  • 211700Z VRB03KT 45SM SKC 08/M04 A3004 RMK SLP192

TAF TAF CYXC
Valid from the 21 at 19:00 until the 22 at 07:00 UTC


211838Z 2119/2207 VRB03KT P6SM FEW240
BECMG 2123/2201 27010KT RMK NXT FCST BY 220100Z
CZVR FIR / North America



MET'MAP, your aeronautical weather chart ! - Copyright ORBIFLY December 2007 - Disclaimer

ORBIFLY MET'MAP TEAM :

Programming & Development : Alexandra Zaïnal
Concept & original design : Baudouin d'Aumeries
Assistance for programming : Marc-Olivier Méhu
Technical & hardware support : Manuel Goepfert

Contact : metmap@orbifly.com




SOURCES & CREDITS :

   NOAA       Earth
Advisory